Weather History for Tanagra, Greece

Change the Weather History Date:

Saturday, August 24, 2013

  Actual Average Record
Temperature  
Mean Temperature 76 °F -  
Max Temperature 91 °F - - ()
Min Temperature 60 °F - - ()
Cooling Degree Days 10    
Growing Degree Days 26 (Base 50)    
Moisture  
Dew Point 46 °F    
Average Humidity 35    
Maximum Humidity 59    
Minimum Humidity 18    
Precipitation  
Precipitation 0.00 in - - ()
Sea Level Pressure  
Sea Level Pressure 29.92 in    
Wind  
Wind Speed 2 mph ()    
Max Wind Speed 12 mph    
Max Gust Speed -    
Visibility 6.2 miles    
Events      
T = Trace of Precipitation, MM = Missing Value Source: Averaged Metar Reports

Daily Weather History Graph

Daily Weather History Graph

Search for Another Location

Airport:

Trip Planner

Search our weather history database for the weather conditions in past years. The results will help you decide how hot, cold, wet, or windy it might be!

Date:

Astronomy

Aug. 24, 2013 Rise Set
Actual Time 6:48 AM EEST 8:07 PM EEST
Civil Twilight 6:20 AM EEST 8:34 PM EEST
Nautical Twilight 5:47 AM EEST 9:07 PM EEST
Astronomical Twilight 5:13 AM EEST 9:42 PM EEST
Moon 9:54 PM EEST (8/24) 10:24 AM EEST (8/24)
Length of Visible Light 14h 14m
Length of Day
13h 19m
Waning Gibbous, 86% of the Moon is Illuminated
Aug 24
Waning Gibbous
Aug 28
Last Quarter
Sep 5
New
Sep 12
First Quarter
Sep 19
Full

Hourly Weather History & Observations

Time (EEST) Temp. Dew Point Humidity Pressure Visibility Wind Dir Wind Speed Gust Speed Precip Events Conditions
12:50 AM 64.4 °F 46.4 °F 52% 29.95 in - Calm Calm - N/A   Clear
1:50 AM 64.4 °F 46.4 °F 52% 29.95 in - Calm Calm - N/A   Clear
2:50 AM 64.4 °F 46.4 °F 52% 29.95 in - Calm Calm - N/A   Clear
3:50 AM 64.4 °F 46.4 °F 52% 29.95 in - Calm Calm - N/A   Clear
4:50 AM 64.4 °F 46.4 °F 52% 29.95 in - Calm Calm - N/A   Clear
5:50 AM 60.8 °F 46.4 °F 59% 29.95 in - Calm Calm - N/A   Clear
6:50 AM 62.6 °F 46.4 °F 55% 29.95 in - Calm Calm - N/A   Clear
7:20 AM 64.4 °F 46.4 °F 52% 29.95 in - Calm Calm - N/A   Clear
8:50 AM 75.2 °F 46.4 °F 36% 29.95 in - Calm Calm - N/A   Clear
9:50 AM 84.2 °F 46.4 °F 27% 29.95 in - Calm Calm - N/A   Clear
10:50 AM 86.0 °F 46.4 °F 25% 29.95 in - Calm Calm - N/A   Clear
11:50 AM 87.8 °F 42.8 °F 21% 29.95 in - Calm Calm - N/A   Clear
12:50 PM 89.6 °F 42.8 °F 20% 29.95 in - Calm Calm - N/A   Clear
1:50 PM 91.4 °F 42.8 °F 18% 29.92 in 6.2 mi ENE 5.8 mph - N/A   Partly Cloudy
2:50 PM 91.4 °F 44.6 °F 20% 29.92 in 6.2 mi ESE 6.9 mph - N/A   Partly Cloudy
3:50 PM 91.4 °F 44.6 °F 20% 29.89 in 6.2 mi East 6.9 mph - N/A   Partly Cloudy
4:50 PM 89.6 °F 44.6 °F 21% 29.89 in 6.2 mi ENE 11.5 mph - N/A   Partly Cloudy
5:50 PM 89.6 °F 44.6 °F 21% 29.86 in 6.2 mi East 11.5 mph - N/A   Partly Cloudy
6:50 PM 87.8 °F 46.4 °F 24% 29.86 in 6.2 mi East 10.4 mph - N/A   Partly Cloudy
7:50 PM 84.2 °F 46.4 °F 27% 29.86 in - East 6.9 mph - N/A   Clear
8:50 PM 82.4 °F 50.0 °F 32% 29.89 in - SSE 4.6 mph - N/A   Clear
9:50 PM 78.8 °F 48.2 °F 34% 29.89 in - SE 5.8 mph - N/A   Clear
10:50 PM 78.8 °F 48.2 °F 34% 29.89 in - Calm Calm - N/A   Clear
11:50 PM 73.4 °F 48.2 °F 41% 29.89 in - Calm Calm - N/A   Clear